Flag for U.S.A. Weather past 2 weeks in Osage City, Kansas, U.S.A.

Now
78 °F

Mostly cloudy.


Feels Like: 80 °F
Forecast: 70 / 87 °F
Wind: 6 mph from West

Location: Forbes Field

Current Time: Aug 4, 2015 at 5:54:57 PM

Latest Report: Aug 4, 2015 at 4:53 PM


Visibility: 10 mi

Pressure: 29.93 "Hg

Humidity: 76%

Dew point: 70 °F

Location of Osage CityLocation

Historic Weather in Osage City — Graph

°F

Osage City temperature yesterday

Maximum temperature yesterday: 95 °F (at 4:53 PM)
Minimum temperature yesterday: 71 °F (at 6:53 AM)
Average temperature yesterday: 83 °F

Past Weeks' High & Low Weather Summary

 TemperatureHumidityPressure
High101 °F (Jul 24, 4:53 PM)91% (Jul 23, 4:53 AM)30.21 "Hg (Jul 23, 4:53 AM)
Low63 °F (Jul 22, 5:53 AM)34% (Jul 30, 4:53 PM)29.80 "Hg (Aug 2, 6:53 PM)
Average82 °F68%29.93 "Hg
* Reported Jul 20 3:53 PM — Aug 4 3:53 PM, Osage City, Weather by CustomWeather, © 2015

Note: Actual official high and low records may vary slightly from our data, if they occured in-between our weather recording intervals... More about our weather records

Advertising

Osage City weather history for previous 24 hours

 ConditionsComfort  
Time TempWeatherWind HumidityBarometerVisibility
3:53 PM
Tue, Aug 4
74 °FThunderstorms. Cloudy.12 mph82%29.90 "Hg5 mi
2:53 PM86 °FBroken clouds.9 mph61%29.89 "Hg10 mi
1:53 PM88 °FScattered clouds.9 mph52%29.91 "Hg10 mi
12:53 PM89 °FSunny.8 mph50%29.92 "Hg10 mi
11:53 AM86 °FScattered clouds.5 mph59%29.94 "Hg10 mi
10:53 AM83 °FPartly sunny.5 mph63%29.95 "Hg10 mi
9:53 AM80 °FSunny.No wind69%29.93 "Hg10 mi
8:53 AM78 °FSunny.6 mph74%29.93 "Hg10 mi
7:53 AM75 °FSunny.5 mph82%29.93 "Hg10 mi
6:53 AM73 °FClear.5 mph84%29.93 "Hg10 mi
5:53 AM73 °FClear.5 mph84%29.90 "Hg9 mi
4:53 AM73 °FClear.3 mph88%29.88 "Hg9 mi
3:53 AM73 °FClear.No wind88%29.88 "Hg10 mi
2:53 AM75 °FClear.3 mph82%29.88 "Hg10 mi
1:53 AM76 °FClear.3 mph82%29.89 "Hg10 mi
12:53 AM77 °FClear.No wind79%29.89 "Hg10 mi
11:53 PM
Mon, Aug 3
77 °FClear.No wind79%29.88 "Hg10 mi
10:53 PM79 °FPassing clouds.7 mph77%29.89 "Hg10 mi
9:53 PM81 °FPassing clouds.9 mph77%29.88 "Hg10 mi
8:53 PM85 °FSunny.No wind68%29.85 "Hg10 mi
7:53 PM89 °FSunny.3 mph57%29.85 "Hg10 mi
6:53 PM92 °FSunny.5 mph51%29.85 "Hg10 mi
5:53 PM94 °FSunny.5 mph41%29.85 "Hg10 mi
Weather by CustomWeather, © 2015

See weather overviewHow to use our weather pages